Погода в Павлодаре

Россия / Тамбовская область     51°43′52″N   42°05′01″E
темп.,
°C
ветер,
м/с
пор.,
м/с
влажн.,
%
обл.,
%
осадки,
мм/ч
давл.,
гПа
погр.,
м
23 июня, ср
ср2300:00+22всв336878 0.0 101940
03:00+20в347547 0.0 101945
06:00+21всв34748 0.0 102093
09:00+28в34557 0.0 1020323
12:00+31всв344514 0.0 1019818
15:00+32в344377 0.0 10191350
18:00+31всв2359100 0.0 1019103
21:00+25св336963 0.0 101924
24 июня, чт
чт2400:00+23всв347791 0.0 101948
03:00+21св358218 0.1 101980
06:00+22св368212 0.0 1020148
09:00+27всв45601 0.0 1019442
12:00+30всв44510 0.0 10191205
15:00+31всв33453 0.0 10182008
18:00+30всв34586 0.0 1018183
21:00+24св336511 0.0 101824
25 июня, пт
пт2500:00+22в337712 0.0 101741
03:00+20всв34845 0.0 101862
06:00+22всв35790 0.0 1018147
09:00+26всв35595 0.0 1017422
12:00+30в34515 0.0 10171439
15:00+31всв33475 0.0 10161978
18:00+30в34595 0.0 1015318
21:00+24в22695 0.0 101513
26 июня, сб
сб2600:00+22в22765 0.0 101522
03:00+21в338112 0.0 101530
06:00+22вюв248119 0.0 1015112
09:00+27вюв3462100 0.0 1015518
12:00+30вюв345141 0.0 10141295
15:00+31вюв334499 0.0 10131893
18:00+30в235999 0.0 1013120
21:00+25в336771 0.0 101327
27 июня, вс
вс2700:00+23в236993 0.0 101321
03:00+21в337378 0.0 101330
06:00+23вюв257744 0.0 1014143
09:00+28вюв236049 0.0 1014474
12:00+32вюв334944 0.0 10141284
15:00+33вюв22445 0.0 10132002
18:00+31в355630 0.0 1013228
21:00+26вюв34675 0.0 101257